"Pseudo-MPEC" for P21DpRO

Created 2023 Mar 19 13:22:22 UT using Find_Orb

Click here for an explanation of pseudo-MPECs

 
 Astrometry: 
     P21DpRO* C2023 03 16c@Q_JK(%-7Fr^pFcLC87I6RJmiByYS=y^#c^(p?qN#gtAnrY+AI]F52
     P21DpRO  C2023 03 16Ep'gp:t392iuMxF)==Wt^,oR$)7y,uD#VeMp_:cK]YFdWFmNc$0rF52
     P21DpRO  C2023 03 16T4UlgaA1QvEG590`vCa`--(K2*MBV'11MxsHAstrometrydky:7PF52
     P21DpRO  C2023 03 16Pdj'-+g-9u5d-tk)Prnbm5HWKqUgF)N+p\DEKb,ES6P*8ZQ'\ba^F52
     P21DpRO  C2023 03 164Yai[(iVuhls4r6@qC0G#o9]@@c($Q;?tP!dnX9\$fJvVEn/o#$/F52
     P21DpRO  C2023 03 16;%O[B1_MYG0ZeXlX;qE?GUdoUte3RtN1#redacted;/-5HZo[(m^F52
     P21DpRO  C2023 03 16bLS3KM[7P6e;#r5Q)9:k(KQxS1n!pV'#DRP%2B/HaKKY:V=-JbigF52
     P21DpRO KC2023 03 173A?AclickR3BC#Zg/dFA`VDH[I[uR]P:LqNG6IT#E0!HjBW/iRoEL01
     P21DpRO KC2023 03 17vqZFSU_80?\(@r+tPP+QROs/8ba.ahere8YA8fQrLC\b]7mWgCruL01
     P21DpRO KC2023 03 17Fk^^.yFo7ZkOFB!L?^R\:?maP4*G,Ymx=+,=RU.28for2v9_wkxTL01
     P21DpRO KC2023 03 17`qGG!\RHhe;@]GTS\b?\+YnjOE\'yvx!CS]O%;qxRKnDSIPf=t;0L01
     P21DpRO KC2023 03 17B,t=P'T%)3explanationt!3LsnXy0MC=vM)mHD/X@K?nBIvPNYdL01
     P21DpRO 1C2023 03 19.15031 12 34 27.46 +13 27 55.0    ~3J9M 22.0 VXNEOCP033
     P21DpRO 1C2023 03 19.15389 12 34 27.22 +13 28 02.2    ~3J9M 22.3 VXNEOCP033
     P21DpRO 1C2023 03 19.15748 12 34 26.94 +13 28 09.4    ~3J9M 22.2 VXNEOCP033

Station data:
(033) Karl Schwarzschild Observatory, Tautenburg  (N50.980137 E11.711240)
   Germany.  Observers S. Melnikov, C. Hoegner, B. Stecklum. Measurer B.
   Stecklum. 1.34-m f/3 Schmidt + CCD.
(F52) Pan-STARRS 2, Haleakala  (N20.707382 W156.255910)  US/Hawaii.
   Observers J. Bulger, T. Dukes, T. Lowe, A. Schultz, M. Willman. Measurers
   K. Chambers, S. Chastel, T. de Boer, L. Denneau, J. Fairlamb, H.
   Flewelling, M. Huber, C.-C. Lin, E. Magnier, Y. Ramanjooloo, R. Wainscoat,
   R. Weryk. 1.8-m Ritchey-Chrétien + CCD.
(L01) Višnjan Observatory, Tičan  (N45.290897 E13.749300)  Croatia.
   Observers K. Korlević, D. Pujagic, V. Dobos. Measurers D. Pujagic, K.
   Korlević. 1.0-m f/2.9 reflector + CCD.

Orbital elements:  P21DpRO
   Perihelion 2023 Jan 5.86168 +/- 0.018 TT = 20:40:49 (JD 2459950.36168)
Epoch 2023 Mar 19.0 TT = JDT 2460022.5   Earth MOID: 0.0119      AutoNEOCP
M  60.41432873 +/- 0.037            (J2000 ecliptic)
n   0.83747898 +/- 0.00034          Peri.  295.83103 +/- 0.010
a   1.11468828 +/- 0.000302         Node   164.57092 +/- 0.011
e   0.1587520 +/- 0.00036           Incl.    3.66402 +/- 0.007
P   1.18/429.85d           H 27.01  G  0.15   U  7.4
q 0.93772927 +/- 0.000166    Q 1.29164728 +/- 0.000746
From 15 observations 2023 Mar. 16-19; mean residual 0".17
Residuals in arcseconds: 
230316 F52  .19+  .26-    230316 F52  .09+  .39-    230317 L01  .14+  .15-    
230316 F52  .26-  .07+    230316 F52  .18+  .03-    230317 L01  .07-  .09+    
230316 F52  .14-  .22+    230317 L01  .27+  .02-    230319 033  .07-  .01+    
230316 F52  .22+  .07+    230317 L01  .03+  .16+    230319 033  .18+  .00     
230316 F52  .33-  .30+    230317 L01  .00   .08+    230319 033  .18-  .03-    

Ephemerides (geocentric):
Date (UTC) HH   RA             Dec           delta  r     elong  mag " sig PA
---- --------  ------------   ------------  ------ ------ -----  --- --------
2023 03 19 13  12 34 14.082   +13 43 10.36  .05916 1.0524 163.6 21.9 .274  47
2023 03 19 14  12 34 12.111   +13 44 35.29  .05926 1.0525 163.6 21.9 .275  48
2023 03 19 15  12 34 10.144   +13 45 59.87  .05936 1.0526 163.6 21.9 .276  49
2023 03 19 16  12 34 08.178   +13 47 24.10  .05946 1.0527 163.6 21.9 .277  49
2023 03 19 17  12 34 06.215   +13 48 47.99  .05956 1.0528 163.5 21.9 .278  50
2023 03 19 18  12 34 04.255   +13 50 11.53  .05966 1.0529 163.5 21.9 .278  51
2023 03 19 19  12 34 02.297   +13 51 34.73  .05976 1.0530 163.5 21.9 .279  52
2023 03 19 20  12 34 00.342   +13 52 57.59  .05986 1.0531 163.5 21.9 .280  52
2023 03 19 21  12 33 58.390   +13 54 20.10  .05996 1.0532 163.5 21.9 .281  53
2023 03 19 22  12 33 56.440   +13 55 42.28  .06006 1.0533 163.5 21.9 .282  54
2023 03 19 23  12 33 54.492   +13 57 04.12  .06016 1.0534 163.5 21.9 .283  55
2023 03 20 00  12 33 52.547   +13 58 25.62  .06026 1.0535 163.5 21.9 .283  55
2023 03 20 01  12 33 50.605   +13 59 46.79  .06036 1.0537 163.5 21.9 .284  56
2023 03 20 02  12 33 48.665   +14 01 07.62  .06047 1.0538 163.5 21.9 .285  57
2023 03 20 03  12 33 46.728   +14 02 28.12  .06057 1.0539 163.5 21.9 .286  58
2023 03 20 04  12 33 44.793   +14 03 48.29  .06067 1.0540 163.5 21.9 .287  59
2023 03 20 05  12 33 42.861   +14 05 08.13  .06077 1.0541 163.5 21.9 .288  59
2023 03 20 06  12 33 40.931   +14 06 27.63  .06087 1.0542 163.5 21.9 .289  60
2023 03 20 07  12 33 39.005   +14 07 46.81  .06097 1.0543 163.5 22.0 .290  61
2023 03 20 08  12 33 37.081   +14 09 05.66  .06107 1.0544 163.5 22.0 .290  62
2023 03 20 09  12 33 35.159   +14 10 24.18  .06117 1.0545 163.5 22.0 .291  63
2023 03 20 10  12 33 33.240   +14 11 42.38  .06127 1.0546 163.4 22.0 .292  64
2023 03 20 11  12 33 31.324   +14 13 00.25  .06137 1.0547 163.4 22.0 .293  64
2023 03 20 12  12 33 29.410   +14 14 17.80  .06148 1.0548 163.4 22.0 .295  65
2023 03 20 13  12 33 27.500   +14 15 35.02  .06158 1.0549 163.4 22.0 .296  66
2023 03 20 14  12 33 25.591   +14 16 51.93  .06168 1.0550 163.4 22.0 .297  67
2023 03 20 15  12 33 23.686   +14 18 08.52  .06178 1.0552 163.4 22.0 .298  68
2023 03 20 16  12 33 21.783   +14 19 24.78  .06188 1.0553 163.4 22.0 .299  69
2023 03 20 17  12 33 19.883   +14 20 40.73  .06198 1.0554 163.4 22.0 .300  70
2023 03 20 18  12 33 17.986   +14 21 56.36  .06208 1.0555 163.4 22.0 .302  70
2023 03 20 19  12 33 16.091   +14 23 11.68  .06219 1.0556 163.4 22.0 .303  71
2023 03 20 20  12 33 14.199   +14 24 26.68  .06229 1.0557 163.4 22.0 .304  72
2023 03 20 21  12 33 12.310   +14 25 41.36  .06239 1.0558 163.4 22.0 .306  73
2023 03 20 22  12 33 10.424   +14 26 55.74  .06249 1.0559 163.4 22.0 .307  74
2023 03 20 23  12 33 08.540   +14 28 09.80  .06259 1.0560 163.3 22.0 .309  75
2023 03 21 00  12 33 06.660   +14 29 23.55  .06270 1.0561 163.3 22.0 .311  76
2023 03 21 01  12 33 04.781   +14 30 37.00  .06280 1.0562 163.3 22.0 .312  77
2023 03 21 02  12 33 02.906   +14 31 50.13  .06290 1.0563 163.3 22.0 .314  77
2023 03 21 03  12 33 01.034   +14 33 02.96  .06300 1.0564 163.3 22.0 .316  78
2023 03 21 04  12 32 59.164   +14 34 15.48  .06310 1.0566 163.3 22.0 .318  79
2023 03 21 05  12 32 57.297   +14 35 27.69  .06321 1.0567 163.3 22.0 .320  80
2023 03 21 06  12 32 55.433   +14 36 39.60  .06331 1.0568 163.3 22.0 .322  81
2023 03 21 07  12 32 53.572   +14 37 51.21  .06341 1.0569 163.3 22.0 .324  82
2023 03 21 08  12 32 51.714   +14 39 02.51  .06351 1.0570 163.3 22.1 .326  83
2023 03 21 09  12 32 49.858   +14 40 13.51  .06362 1.0571 163.2 22.1 .328  84
2023 03 21 10  12 32 48.006   +14 41 24.21  .06372 1.0572 163.2 22.1 .330  85
2023 03 21 11  12 32 46.156   +14 42 34.62  .06382 1.0573 163.2 22.1 .333  85
2023 03 21 12  12 32 44.309   +14 43 44.72  .06393 1.0574 163.2 22.1 .335  86